Powrót do katalogu

COSMOS 2327

AktywnyMilitariaPO
NORAD 23773·PAYLOAD·🇷🇺 Russia

Wystrzelony Jan 16, 1996 z Plesetsk Cosmodrome

Loading…

Następne Przeloty (najbliższe 24 godziny)

TLE

ŚwieżeSource: Space-Track

Epoka: Sep 14, 2026, 17:16 UTC

1 23773U 96004A   26257.71946189  .00000044  00000-0  29694-4 0  9990
2 23773  82.9808  58.8826 0048059  10.4316   0.7124 13.74773675537938

Śledź COSMOS 2327 w czasie rzeczywistym z AllMySat

Download on the App Store